| time (UTC) | temp F | wind direction | speed knots | gust knots | rain 1hr in | rain 24hr in | rain mn in | humidity % | barometer mb |
| 20260506080601 | 76 | 360 | 0.0 | 0.0 | 0.00 | 0.00 | 0.00 | 94 | 1009.5 |
| 20260506073520 | 76 | 360 | 0.0 | 0.0 | 0.00 | 0.00 | 0.00 | 94 | 1009.8 |
| 20260506073016 | 76 | 360 | 0.0 | 0.0 | 0.00 | 0.00 | 0.00 | 94 | 1009.8 |
| 20260506072514 | 76 | 360 | 0.0 | 0.0 | 0.00 | 0.00 | 0.00 | 93 | 1009.8 |
| 20260506072011 | 76 | 360 | 0.0 | 0.0 | 0.00 | 0.00 | 0.00 | 93 | 1009.8 |
| 20260506071449 | 76 | 360 | 0.0 | 0.0 | 0.00 | 0.00 | 0.00 | 93 | 1010.2 |
| 20260506070926 | 76 | 360 | 0.0 | 0.0 | 0.00 | 0.00 | 0.00 | 93 | 1010.2 |
| 20260506070424 | 76 | 360 | 0.0 | 0.0 | 0.00 | 0.00 | 0.00 | 93 | 1010.2 |
| 20260506062237 | 76 | 360 | 0.0 | 0.0 | 0.00 | 0.00 | 0.00 | 93 | 1009.8 |
| 20260506061734 | 76 | 360 | 0.0 | 0.0 | 0.00 | 0.00 | 0.00 | 93 | 1009.8 |
| 20260506061230 | 76 | 348 | 0.0 | 0.0 | 0.00 | 0.00 | 0.00 | 93 | 1009.8 |
| 20260506060727 | 76 | 355 | 0.0 | 0.0 | 0.00 | 0.00 | 0.00 | 93 | 1009.8 |
| 20260506060152 | 76 | 355 | 0.0 | 0.0 | 0.00 | 0.00 | 0.00 | 93 | 1009.8 |
| 20260506051019 | 77 | 169 | 0.0 | 0.0 | 0.00 | 0.00 | 0.00 | 93 | 1010.2 |
| 20260506050516 | 77 | 169 | 0.0 | 0.0 | 0.00 | 0.00 | 0.00 | 93 | 1010.2 |
| 20260506044935 | 77 | 134 | 0.0 | 0.0 | 0.00 | 0.00 | 0.00 | 93 | 1009.8 |
| 20260506044432 | 77 | 134 | 0.0 | 0.0 | 0.00 | 0.00 | 0.00 | 93 | 1009.8 |
| 20260506043929 | 77 | 134 | 0.0 | 0.0 | 0.00 | 0.00 | 0.00 | 93 | 1009.8 |
| 20260506043426 | 77 | 336 | 0.0 | 0.0 | 0.00 | 0.00 | 0.00 | 93 | 1009.8 |
| 20260506042922 | 77 | 5 | 0.0 | 0.0 | 0.00 | 0.00 | 0.00 | 93 | 1009.8 |
| 20260506042419 | 77 | 5 | 0.0 | 1.7 | 0.00 | 0.00 | 0.00 | 93 | 1009.8 |
| 20260506041916 | 77 | 5 | 0.0 | 1.7 | 0.00 | 0.00 | 0.00 | 93 | 1010.2 |
| 20260506041342 | 77 | 5 | 0.0 | 1.7 | 0.00 | 0.00 | 0.00 | 92 | 1009.8 |
| 20260506040838 | 77 | 185 | 0.9 | 1.7 | 0.00 | 0.00 | 0.00 | 92 | 1009.8 |
| 20260506040335 | 77 | 186 | 0.9 | 0.9 | 0.00 | 0.00 | 0.00 | 92 | 1009.8 |
| 20260506035831 | 77 | 185 | 0.9 | 0.9 | 0.00 | 0.00 | 0.00 | 92 | 1009.8 |
| 20260506035328 | 77 | 132 | 0.0 | 1.7 | 0.00 | 0.00 | 0.00 | 92 | 1009.8 |
| 20260506034754 | 77 | 134 | 0.9 | 1.7 | 0.00 | 0.00 | 0.00 | 92 | 1009.8 |
| 20260506034251 | 77 | 134 | 0.9 | 1.7 | 0.00 | 0.00 | 0.00 | 92 | 1009.8 |
| 20260506033748 | 77 | 134 | 0.9 | 2.6 | 0.00 | 0.00 | 0.00 | 92 | 1009.8 |
| 20260506033245 | 77 | 134 | 0.9 | 2.6 | 0.00 | 0.00 | 0.00 | 92 | 1009.8 |
| 20260506032742 | 77 | 159 | 0.9 | 2.6 | 0.00 | 0.00 | 0.00 | 92 | 1009.8 |
| 20260506032239 | 77 | 159 | 0.9 | 2.6 | 0.00 | 0.00 | 0.00 | 92 | 1009.8 |
| 20260506031736 | 77 | 322 | 0.0 | 0.9 | 0.00 | 0.00 | 0.00 | 92 | 1009.8 |
| 20260506031233 | 77 | 17 | 0.0 | 0.9 | 0.00 | 0.00 | 0.00 | 92 | 1009.5 |
| 20260506030627 | 77 | 17 | 0.0 | 0.9 | 0.00 | 0.00 | 0.00 | 92 | 1009.5 |
| 20260506030124 | 77 | 17 | 0.0 | 0.9 | 0.00 | 0.00 | 0.00 | 92 | 1009.5 |
| 20260506025620 | 77 | 17 | 0.0 | 0.9 | 0.00 | 0.00 | 0.00 | 92 | 1009.5 |
| 20260506025008 | 77 | 201 | 0.9 | 0.9 | 0.00 | 0.00 | 0.00 | 92 | 1009.5 |
| 20260506024446 | 77 | 202 | 0.0 | 0.9 | 0.00 | 0.00 | 0.00 | 93 | 1009.5 |
| 20260506023912 | 77 | 202 | 0.0 | 0.0 | 0.00 | 0.00 | 0.00 | 93 | 1009.1 |
| 20260506023408 | 77 | 201 | 0.0 | 0.0 | 0.00 | 0.00 | 0.00 | 93 | 1009.1 |
| 20260506022846 | 77 | 239 | 0.0 | 0.0 | 0.00 | 0.00 | 0.00 | 93 | 1009.1 |
| 20260506022342 | 77 | 239 | 0.0 | 0.9 | 0.00 | 0.00 | 0.00 | 93 | 1009.1 |
| 20260506021823 | 77 | 239 | 0.0 | 0.9 | 0.00 | 0.00 | 0.00 | 92 | 1008.8 |
| 20260506021320 | 77 | 165 | 0.0 | 1.7 | 0.00 | 0.00 | 0.00 | 92 | 1008.8 |
| 20260506020815 | 77 | 165 | 0.9 | 1.7 | 0.00 | 0.00 | 0.00 | 92 | 1008.8 |
| 20260506020241 | 77 | 165 | 0.0 | 1.7 | 0.00 | 0.00 | 0.00 | 92 | 1008.8 |
| 20260506015738 | 77 | 177 | 0.9 | 1.7 | 0.00 | 0.00 | 0.00 | 92 | 1008.5 |
| 20260506015234 | 77 | 71 | 0.0 | 1.7 | 0.00 | 0.00 | 0.00 | 92 | 1008.5 |
| 20260506014730 | 77 | 71 | 0.0 | 1.7 | 0.00 | 0.00 | 0.00 | 91 | 1008.5 |
| 20260506014156 | 77 | 127 | 0.9 | 0.9 | 0.00 | 0.00 | 0.00 | 91 | 1008.5 |
| 20260506013621 | 77 | 153 | 0.0 | 0.9 | 0.00 | 0.00 | 0.00 | 91 | 1008.5 |
| 20260506013117 | 77 | 153 | 0.0 | 1.7 | 0.00 | 0.00 | 0.00 | 91 | 1008.5 |
| 20260506012614 | 77 | 153 | 0.0 | 1.7 | 0.00 | 0.00 | 0.00 | 91 | 1008.5 |
| 20260506012109 | 78 | 153 | 0.0 | 1.7 | 0.00 | 0.00 | 0.00 | 91 | 1008.1 |
| 20260506011534 | 78 | 153 | 0.9 | 3.5 | 0.00 | 0.00 | 0.00 | 91 | 1008.1 |
| 20260506011030 | 78 | 150 | 0.9 | 4.3 | 0.00 | 0.00 | 0.00 | 91 | 1008.1 |
| 20260506010321 | 78 | 148 | 0.9 | 4.3 | 0.00 | 0.00 | 0.00 | 91 | 1008.1 |
| 20260506005818 | 78 | 189 | 0.9 | 4.3 | 0.00 | 0.00 | 0.00 | 90 | 1008.1 |
| 20260506005315 | 78 | 151 | 1.7 | 3.5 | 0.00 | 0.00 | 0.00 | 90 | 1007.8 |
| 20260506004740 | 78 | 177 | 0.0 | 3.5 | 0.00 | 0.00 | 0.00 | 90 | 1007.8 |
| 20260506004236 | 78 | 186 | 0.9 | 3.5 | 0.00 | 0.00 | 0.00 | 90 | 1007.8 |
| 20260506003733 | 78 | 161 | 0.0 | 3.5 | 0.00 | 0.00 | 0.00 | 90 | 1007.8 |
| 20260506003230 | 78 | 152 | 1.7 | 3.5 | 0.00 | 0.00 | 0.00 | 90 | 1007.8 |
| 20260506002726 | 78 | 157 | 0.9 | 2.6 | 0.00 | 0.00 | 0.00 | 90 | 1007.8 |
| 20260506002223 | 78 | 97 | 0.9 | 1.7 | 0.00 | 0.00 | 0.00 | 90 | 1007.8 |
| 20260506001720 | 78 | 96 | 0.9 | 1.7 | 0.00 | 0.00 | 0.00 | 90 | 1007.8 |
| 20260506001145 | 79 | 111 | 0.9 | 1.7 | 0.00 | 0.00 | 0.00 | 90 | 1007.8 |
| 20260506000520 | 79 | 126 | 0.0 | 1.7 | 0.00 | 0.00 | 0.00 | 89 | 1007.8 |
| 20260506000017 | 79 | 292 | 0.0 | 1.7 | 0.00 | 0.00 | 0.00 | 89 | 1007.8 |
| 20260505235514 | 79 | 309 | 0.9 | 1.7 | 0.00 | 0.00 | 0.00 | 89 | 1007.8 |
| 20260505235011 | 79 | 309 | 0.9 | 1.7 | 0.00 | 0.00 | 0.00 | 89 | 1007.8 |
| 20260505234437 | 79 | 309 | 0.9 | 1.7 | 0.00 | 0.00 | 0.00 | 89 | 1007.8 |
| 20260505233933 | 79 | 310 | 0.9 | 1.7 | 0.00 | 0.00 | 0.00 | 89 | 1007.8 |
| 20260505233411 | 79 | 314 | 0.9 | 1.7 | 0.00 | 0.00 | 0.00 | 89 | 1007.8 |
| 20260505232908 | 79 | 193 | 0.9 | 2.6 | 0.00 | 0.00 | 0.00 | 88 | 1007.8 |
| 20260505232346 | 80 | 187 | 0.0 | 2.6 | 0.00 | 0.00 | 0.00 | 88 | 1007.8 |
| 20260505231842 | 80 | 187 | 0.9 | 2.6 | 0.00 | 0.00 | 0.00 | 88 | 1007.8 |
| 20260505231339 | 80 | 80 | 0.0 | 2.6 | 0.00 | 0.00 | 0.00 | 88 | 1007.8 |
| 20260505230836 | 80 | 114 | 0.9 | 2.6 | 0.00 | 0.00 | 0.00 | 87 | 1007.8 |
| 20260505230302 | 80 | 113 | 0.9 | 2.6 | 0.00 | 0.00 | 0.00 | 87 | 1007.8 |
| 20260505225759 | 80 | 132 | 0.9 | 2.6 | 0.00 | 0.00 | 0.00 | 87 | 1007.8 |
| 20260505225256 | 80 | 169 | 0.9 | 3.5 | 0.00 | 0.00 | 0.00 | 87 | 1007.8 |
| 20260505224651 | 80 | 156 | 0.9 | 3.5 | 0.00 | 0.00 | 0.00 | 88 | 1007.8 |
| 20260505224148 | 80 | 46 | 0.9 | 3.5 | 0.00 | 0.00 | 0.00 | 88 | 1007.8 |
| 20260505223645 | 80 | 84 | 0.9 | 3.5 | 0.00 | 0.00 | 0.00 | 88 | 1007.8 |
| 20260505223142 | 80 | 183 | 1.7 | 3.5 | 0.00 | 0.00 | 0.00 | 88 | 1007.8 |
| 20260505222639 | 80 | 237 | 0.9 | 2.6 | 0.00 | 0.00 | 0.00 | 88 | 1008.1 |
| 20260505222136 | 80 | 107 | 0.0 | 2.6 | 0.00 | 0.00 | 0.00 | 88 | 1007.8 |
| 20260505221614 | 80 | 107 | 0.9 | 2.6 | 0.00 | 0.00 | 0.00 | 88 | 1008.1 |
| 20260505221112 | 80 | 156 | 0.9 | 2.6 | 0.00 | 0.00 | 0.00 | 88 | 1007.8 |
| 20260505220608 | 80 | 167 | 0.9 | 2.6 | 0.00 | 0.00 | 0.00 | 88 | 1008.1 |
| 20260505220105 | 80 | 169 | 0.9 | 2.6 | 0.00 | 0.00 | 0.00 | 88 | 1008.1 |
| 20260505215531 | 80 | 178 | 0.9 | 2.6 | 0.00 | 0.00 | 0.00 | 88 | 1008.1 |
| 20260505215029 | 80 | 177 | 0.9 | 2.6 | 0.00 | 0.00 | 0.00 | 88 | 1008.1 |
| 20260505214525 | 80 | 133 | 0.9 | 2.6 | 0.00 | 0.00 | 0.00 | 88 | 1008.5 |
| 20260505214022 | 80 | 179 | 0.9 | 2.6 | 0.00 | 0.00 | 0.00 | 88 | 1008.5 |
| 20260505213500 | 81 | 166 | 0.9 | 2.6 | 0.00 | 0.00 | 0.00 | 88 | 1008.1 |
| 20260505212957 | 81 | 170 | 0.9 | 2.6 | 0.00 | 0.00 | 0.00 | 88 | 1008.5 |
| 20260505212454 | 81 | 213 | 0.9 | 2.6 | 0.00 | 0.00 | 0.00 | 87 | 1008.5 |
| 20260505211901 | 81 | 144 | 1.7 | 3.5 | 0.00 | 0.00 | 0.00 | 88 | 1008.5 |
| 20260505211358 | 81 | 37 | 1.7 | 3.5 | 0.00 | 0.00 | 0.00 | 88 | 1008.5 |
| 20260505210855 | 81 | 143 | 0.9 | 3.5 | 0.00 | 0.00 | 0.00 | 88 | 1008.5 |
| 20260505210322 | 80 | 134 | 0.0 | 3.5 | 0.00 | 0.00 | 0.00 | 88 | 1008.5 |
| 20260505205819 | 80 | 181 | 0.9 | 2.6 | 0.00 | 0.00 | 0.00 | 88 | 1008.8 |
| 20260505205245 | 81 | 187 | 0.9 | 2.6 | 0.00 | 0.00 | 0.00 | 88 | 1008.8 |
| 20260505204741 | 81 | 223 | 1.7 | 2.6 | 0.00 | 0.00 | 0.00 | 88 | 1008.8 |
| 20260505204238 | 81 | 106 | 0.9 | 2.6 | 0.00 | 0.00 | 0.00 | 87 | 1009.1 |
| 20260505203734 | 81 | 169 | 0.9 | 2.6 | 0.00 | 0.00 | 0.00 | 88 | 1009.1 |
| 20260505203230 | 81 | 200 | 1.7 | 2.6 | 0.00 | 0.00 | 0.00 | 87 | 1009.1 |
| 20260505202727 | 81 | 133 | 0.9 | 2.6 | 0.00 | 0.00 | 0.00 | 87 | 1009.1 |
| 20260505202223 | 81 | 126 | 0.9 | 2.6 | 0.00 | 0.00 | 0.00 | 88 | 1009.1 |
| 20260505201719 | 81 | 56 | 0.9 | 2.6 | 0.00 | 0.00 | 0.00 | 88 | 1009.1 |
| 20260505201216 | 81 | 123 | 0.9 | 2.6 | 0.00 | 0.00 | 0.00 | 87 | 1009.5 |
| 20260505200712 | 81 | 148 | 0.9 | 1.7 | 0.00 | 0.00 | 0.00 | 88 | 1009.5 |
| 20260505200208 | 81 | 216 | 0.9 | 2.6 | 0.00 | 0.00 | 0.00 | 88 | 1009.5 |
| 20260505195633 | 81 | 177 | 0.9 | 2.6 | 0.00 | 0.00 | 0.00 | 88 | 1009.5 |
| 20260505195040 | 81 | 161 | 0.9 | 2.6 | 0.00 | 0.00 | 0.00 | 88 | 1009.5 |
| 20260505194505 | 81 | 19 | 0.9 | 2.6 | 0.00 | 0.00 | 0.00 | 88 | 1009.5 |
| 20260505194002 | 81 | 183 | 0.0 | 2.6 | 0.00 | 0.00 | 0.00 | 88 | 1009.5 |
| 20260505193459 | 81 | 227 | 0.0 | 2.6 | 0.00 | 0.00 | 0.00 | 88 | 1009.5 |
| 20260505192955 | 81 | 125 | 0.9 | 2.6 | 0.00 | 0.00 | 0.00 | 88 | 1009.5 |
| 20260505192452 | 81 | 173 | 0.9 | 2.6 | 0.00 | 0.00 | 0.00 | 88 | 1009.5 |
| 20260505191950 | 81 | 161 | 0.9 | 1.7 | 0.00 | 0.00 | 0.00 | 89 | 1009.5 |
| 20260505191447 | 80 | 161 | 0.9 | 2.6 | 0.00 | 0.00 | 0.00 | 89 | 1009.5 |
| 20260505190943 | 80 | 168 | 0.9 | 2.6 | 0.00 | 0.00 | 0.00 | 89 | 1009.8 |
| 20260505190409 | 79 | 171 | 0.9 | 2.6 | 0.00 | 0.00 | 0.00 | 89 | 1009.8 |
| 20260505185907 | 79 | 126 | 1.7 | 2.6 | 0.00 | 0.00 | 0.00 | 89 | 1009.8 |
| 20260505185332 | 79 | 200 | 0.9 | 2.6 | 0.00 | 0.00 | 0.00 | 90 | 1009.8 |
| 20260505184758 | 79 | 355 | 0.9 | 1.7 | 0.00 | 0.00 | 0.00 | 90 | 1009.8 |
| 20260505184224 | 79 | 156 | 0.9 | 1.7 | 0.00 | 0.00 | 0.00 | 89 | 1009.8 |
| 20260505183650 | 79 | 119 | 0.0 | 1.7 | 0.00 | 0.00 | 0.00 | 90 | 1010.2 |
| 20260505183146 | 79 | 23 | 0.9 | 1.7 | 0.00 | 0.00 | 0.00 | 90 | 1009.8 |
| 20260505182643 | 79 | 33 | 0.9 | 1.7 | 0.00 | 0.00 | 0.00 | 90 | 1010.2 |
| 20260505182108 | 79 | 105 | 0.0 | 0.0 | 0.00 | 0.00 | 0.00 | 90 | 1010.2 |
| 20260505181605 | 79 | 155 | 0.0 | 2.6 | 0.00 | 0.00 | 0.00 | 90 | 1010.2 |
| 20260505181102 | 79 | 155 | 0.0 | 2.6 | 0.00 | 0.00 | 0.00 | 89 | 1010.2 |
| 20260505180558 | 79 | 155 | 0.0 | 2.6 | 0.00 | 0.00 | 0.00 | 89 | 1010.2 |
| 20260505180023 | 79 | 244 | 0.9 | 2.6 | 0.00 | 0.00 | 0.00 | 89 | 1010.2 |
| 20260505175519 | 79 | 211 | 0.9 | 1.7 | 0.00 | 0.00 | 0.00 | 90 | 1010.2 |
| 20260505174843 | 79 | 288 | 0.9 | 1.7 | 0.00 | 0.00 | 0.00 | 90 | 1010.2 |
| 20260505174339 | 79 | 79 | 0.9 | 1.7 | 0.00 | 0.00 | 0.00 | 90 | 1010.2 |
| 20260505173836 | 79 | 211 | 0.0 | 1.7 | 0.00 | 0.00 | 0.00 | 91 | 1010.2 |
| 20260505173333 | 78 | 211 | 0.0 | 1.7 | 0.00 | 0.00 | 0.00 | 90 | 1010.2 |
| 20260505172830 | 78 | 120 | 0.9 | 1.7 | 0.00 | 0.00 | 0.00 | 91 | 1010.5 |
| 20260505172327 | 78 | 126 | 0.0 | 3.5 | 0.00 | 0.00 | 0.00 | 90 | 1010.5 |
| 20260505171823 | 78 | 127 | 0.9 | 3.5 | 0.00 | 0.00 | 0.00 | 91 | 1010.5 |
| 20260505171320 | 78 | 128 | 0.9 | 3.5 | 0.00 | 0.00 | 0.00 | 91 | 1010.5 |
| 20260505170817 | 78 | 22 | 0.9 | 3.5 | 0.00 | 0.00 | 0.00 | 90 | 1010.5 |
| 20260505170258 | 78 | 318 | 1.7 | 1.7 | 0.00 | 0.00 | 0.00 | 90 | 1010.5 |
| 20260505165755 | 78 | 184 | 0.9 | 1.7 | 0.00 | 0.00 | 0.00 | 90 | 1010.5 |
| 20260505165252 | 78 | 138 | 0.9 | 1.7 | 0.00 | 0.00 | 0.00 | 90 | 1010.5 |
| 20260505164718 | 78 | 138 | 0.9 | 1.7 | 0.00 | 0.00 | 0.00 | 90 | 1010.5 |
| 20260505164143 | 78 | 107 | 0.9 | 1.7 | 0.00 | 0.00 | 0.00 | 90 | 1010.2 |
| 20260505163640 | 78 | 135 | 0.0 | 1.7 | 0.00 | 0.00 | 0.00 | 89 | 1010.5 |
| 20260505163136 | 78 | 135 | 0.9 | 3.5 | 0.00 | 0.00 | 0.00 | 90 | 1010.5 |
| 20260505162602 | 78 | 134 | 0.9 | 3.5 | 0.00 | 0.00 | 0.00 | 90 | 1010.5 |
| 20260505162058 | 78 | 163 | 0.9 | 3.5 | 0.00 | 0.00 | 0.00 | 90 | 1010.5 |
| 20260505161452 | 78 | 152 | 0.9 | 3.5 | 0.00 | 0.00 | 0.00 | 90 | 1010.2 |
| 20260505160948 | 78 | 161 | 0.0 | 2.6 | 0.00 | 0.00 | 0.00 | 90 | 1010.2 |
| 20260505160445 | 78 | 163 | 0.9 | 2.6 | 0.00 | 0.00 | 0.00 | 90 | 1010.2 |
| 20260505153350 | 78 | 96 | 0.9 | 1.7 | 0.00 | 0.00 | 0.00 | 90 | 1010.2 |
| 20260505152847 | 78 | 94 | 0.9 | 2.6 | 0.00 | 0.00 | 0.00 | 89 | 1010.2 |
| 20260505152343 | 78 | 355 | 0.9 | 2.6 | 0.00 | 0.00 | 0.00 | 90 | 1009.8 |
| 20260505151839 | 78 | 84 | 0.9 | 2.6 | 0.00 | 0.00 | 0.00 | 91 | 1009.8 |
| 20260505151336 | 77 | 130 | 1.7 | 2.6 | 0.00 | 0.00 | 0.00 | 91 | 1009.8 |
| 20260505150832 | 77 | 213 | 0.9 | 2.6 | 0.00 | 0.00 | 0.00 | 92 | 1009.8 |
| 20260505150327 | 77 | 177 | 0.9 | 1.7 | 0.00 | 0.00 | 0.00 | 92 | 1009.8 |
| 20260505140508 | 75 | 208 | 0.9 | 1.7 | 0.00 | 0.00 | 0.00 | 91 | 1010.2 |
| 20260505130145 | 74 | 42 | 0.9 | 1.7 | 0.00 | 0.00 | 0.00 | 93 | 1009.8 |
| 20260505124635 | 74 | 80 | 0.9 | 0.9 | 0.00 | 0.00 | 0.00 | 92 | 1009.5 |
| 20260505123959 | 74 | 74 | 0.9 | 0.9 | 0.00 | 0.00 | 0.00 | 92 | 1009.5 |
| 20260505123455 | 74 | 74 | 0.9 | 0.9 | 0.00 | 0.00 | 0.00 | 92 | 1009.5 |
| 20260505122934 | 74 | 33 | 0.9 | 0.9 | 0.00 | 0.00 | 0.00 | 92 | 1009.5 |
| 20260505122430 | 73 | 31 | 0.0 | 0.9 | 0.00 | 0.00 | 0.00 | 92 | 1009.5 |
| 20260505121927 | 73 | 32 | 0.9 | 0.9 | 0.00 | 0.00 | 0.00 | 92 | 1009.5 |
| 20260505121353 | 73 | 32 | 0.0 | 0.9 | 0.00 | 0.00 | 0.00 | 92 | 1009.5 |
| 20260505120800 | 73 | 32 | 0.0 | 0.9 | 0.00 | 0.00 | 0.00 | 92 | 1009.5 |
| 20260505120257 | 73 | 32 | 0.0 | 0.9 | 0.00 | 0.00 | 0.00 | 92 | 1009.8 |
| 20260505115754 | 73 | 32 | 0.0 | 0.9 | 0.00 | 0.00 | 0.00 | 92 | 1009.5 |
| 20260505115220 | 73 | 32 | 0.0 | 0.9 | 0.00 | 0.00 | 0.00 | 92 | 1009.5 |
| 20260505114659 | 73 | 85 | 0.9 | 0.9 | 0.00 | 0.00 | 0.00 | 92 | 1009.5 |
| 20260505114156 | 73 | 120 | 0.9 | 0.9 | 0.00 | 0.00 | 0.00 | 92 | 1009.5 |
| 20260505113634 | 73 | 120 | 0.0 | 0.9 | 0.00 | 0.00 | 0.00 | 92 | 1009.5 |
| 20260505113132 | 73 | 120 | 0.9 | 0.9 | 0.00 | 0.00 | 0.00 | 92 | 1009.1 |
| 20260505112627 | 73 | 120 | 0.9 | 0.9 | 0.00 | 0.00 | 0.00 | 92 | 1009.5 |
| 20260505112123 | 73 | 120 | 0.9 | 0.9 | 0.00 | 0.00 | 0.00 | 92 | 1009.5 |
| 20260505111549 | 73 | 120 | 0.0 | 0.9 | 0.00 | 0.00 | 0.00 | 92 | 1009.5 |
| 20260505110949 | 73 | 120 | 0.0 | 0.9 | 0.00 | 0.00 | 0.00 | 92 | 1009.8 |
| 20260505110445 | 73 | 121 | 0.9 | 0.9 | 0.00 | 0.00 | 0.00 | 92 | 1009.5 |
| 20260505102220 | 73 | 97 | 0.0 | 0.9 | 0.00 | 0.00 | 0.00 | 92 | 1009.5 |
| 20260505101645 | 73 | 97 | 0.0 | 0.9 | 0.00 | 0.00 | 0.00 | 92 | 1009.5 |
| 20260505101141 | 73 | 97 | 0.0 | 0.9 | 0.00 | 0.00 | 0.00 | 91 | 1009.5 |
| 20260505100638 | 73 | 55 | 0.0 | 0.0 | 0.00 | 0.00 | 0.00 | 91 | 1009.1 |
| 20260505100115 | 73 | 55 | 0.0 | 0.0 | 0.00 | 0.00 | 0.00 | 91 | 1009.5 |
| 20260505095612 | 73 | 55 | 0.0 | 0.9 | 0.00 | 0.00 | 0.00 | 91 | 1009.5 |
| 20260505094935 | 73 | 55 | 0.0 | 0.9 | 0.00 | 0.00 | 0.00 | 91 | 1009.5 |
| 20260505094413 | 73 | 55 | 0.0 | 0.9 | 0.00 | 0.00 | 0.00 | 91 | 1009.5 |
| 20260505093839 | 73 | 55 | 0.0 | 0.9 | 0.00 | 0.00 | 0.00 | 91 | 1009.8 |
| 20260505093335 | 73 | 55 | 0.0 | 0.9 | 0.00 | 0.00 | 0.00 | 91 | 1009.8 |
| 20260505092833 | 73 | 55 | 0.0 | 0.9 | 0.00 | 0.00 | 0.00 | 91 | 1009.5 |
| 20260505092330 | 73 | 55 | 0.0 | 0.9 | 0.00 | 0.00 | 0.00 | 91 | 1009.5 |
| 20260505091826 | 73 | 55 | 0.0 | 0.9 | 0.00 | 0.00 | 0.00 | 91 | 1009.5 |
| 20260505091323 | 73 | 304 | 0.0 | 0.9 | 0.00 | 0.00 | 0.00 | 91 | 1009.8 |
| 20260505090820 | 73 | 281 | 0.0 | 0.9 | 0.00 | 0.00 | 0.00 | 91 | 1009.8 |
| 20260505090317 | 73 | 281 | 0.0 | 0.9 | 0.00 | 0.00 | 0.00 | 91 | 1009.8 |
| 20260505085814 | 73 | 281 | 0.0 | 0.9 | 0.00 | 0.00 | 0.00 | 91 | 1009.8 |
| 20260505085311 | 73 | 281 | 0.0 | 0.9 | 0.00 | 0.00 | 0.00 | 91 | 1009.8 |
| 20260505084808 | 73 | 281 | 0.0 | 0.9 | 0.00 | 0.00 | 0.00 | 91 | 1009.5 |
| 20260505084305 | 73 | 281 | 0.0 | 0.9 | 0.00 | 0.00 | 0.00 | 91 | 1009.5 |
| 20260505083802 | 73 | 281 | 0.0 | 0.9 | 0.00 | 0.00 | 0.00 | 91 | 1009.5 |
| 20260505083258 | 73 | 281 | 0.9 | 0.9 | 0.00 | 0.00 | 0.00 | 91 | 1009.8 |
| 20260505082756 | 73 | 281 | 0.9 | 0.9 | 0.00 | 0.00 | 0.00 | 91 | 1009.5 |
| 20260505082253 | 73 | 281 | 0.0 | 0.9 | 0.00 | 0.00 | 0.00 | 91 | 1009.8 |
| 20260505081749 | 73 | 281 | 0.0 | 0.9 | 0.00 | 0.00 | 0.00 | 90 | 1009.8 |
| 20260505081246 | 73 | 281 | 0.9 | 0.9 | 0.00 | 0.00 | 0.00 | 90 | 1009.8 |